Location: Karcze
(52.0945°N, 22.4786°E)
Time: 20:41:45
(UTC+00:00)

Transit 2A Rocket - Pass Details

Date: 02 August 2021
Orbit: 586 x 917 km, 66.7° (Epoch: 27 September)

Event Time Altitude Azimuth Distance (km) Brightness Sun altitude
Rises 13:09:17 0° 224° (SW) 2,873 8.7 44.3°
Reaches altitude 10° 13:11:28 10° 226° (SW) 2,003 8.2 44.0°
Maximum altitude 13:15:58 72° 312° (NW) 702 5.7 43.5°
Drops below altitude 10° 13:20:56 10° 37° (NE) 2,201 7.1 42.8°
Sets 13:23:26 0° 39° (NE) 3,182 7.8 42.5°
